Weather History for KBIX - November, 2013

Change the Weather History Date:

Friday, November 22, 2013

  Actual Average Record
Temperature  
Mean Temperature 70 °F -  
Max Temperature 78 °F 67 °F 79 °F (1973)
Min Temperature 62 °F 47 °F 30 °F (2000)
Cooling Degree Days 5    
Growing Degree Days 20 (Base 50)    
Moisture  
Dew Point 66 °F    
Average Humidity 90    
Maximum Humidity 100    
Minimum Humidity 73    
Precipitation  
Precipitation 0.24 in - - ()
Sea Level Pressure  
Sea Level Pressure 30.19 in    
Wind  
Wind Speed 7 mph (East)    
Max Wind Speed 14 mph    
Max Gust Speed -    
Visibility 9 miles    
Events Rain    
Averages and records for this station are not official NWS values.
T = Trace of Precipitation, MM = Missing Value Source: NWS Daily Summary

Daily Weather History Graph

Daily Weather History Graph

Search for Another Location

Airport or City:

Trip Planner

Search our weather history database for the weather conditions in past years. The results will help you decide how hot, cold, wet, or windy it might be!

Date:

Astronomy

Nov. 22, 2013 Rise Set
Actual Time 6:27 AM CST 4:55 PM CST
Civil Twilight 6:01 AM CST 5:21 PM CST
Nautical Twilight 5:32 AM CST 5:51 PM CST
Astronomical Twilight 5:03 AM CST 6:19 PM CST
Moon 9:22 PM CST (11/22) 10:15 AM CST (11/22)
Length of Visible Light 11h 19m
Length of Day
10h 28m
Waning Gibbous, 78% of the Moon is Illuminated
Nov 22
Waning Gibbous
Nov 25
Last Quarter
Dec 2
New
Dec 9
First Quarter
Dec 17
Full

Hourly Weather History & Observations

Time (CST) Temp. Dew Point Humidity Pressure Visibility Wind Dir Wind Speed Gust Speed Precip Events Conditions
12:13 AM 66.2 °F 62.6 °F 88% 30.20 in 10.0 mi ENE 6.9 mph - N/A   Overcast
12:53 AM 66.2 °F 60.8 °F 83% 30.20 in 10.0 mi East 6.9 mph - N/A   Overcast
12:58 AM 66.0 °F 61.5 °F 85% 30.21 in 10.0 mi East 6.9 mph - N/A   Overcast
1:03 AM 66.2 °F 60.8 °F 83% 30.20 in 10.0 mi ENE 6.9 mph - N/A   Overcast
1:08 AM 66.2 °F 60.8 °F 83% 30.20 in 10.0 mi ENE 5.8 mph - N/A   Overcast
1:58 AM 65.1 °F 61.2 °F 87% 30.21 in 10.0 mi ENE 6.9 mph - N/A   Overcast
2:38 AM 64.4 °F 60.8 °F 88% 30.18 in 10.0 mi ENE 4.6 mph - N/A   Overcast
2:58 AM 64.2 °F 61.0 °F 89% 30.19 in 10.0 mi ENE 3.5 mph - N/A   Overcast
3:13 AM 64.4 °F 60.8 °F 88% 30.18 in 10.0 mi ENE 5.8 mph - N/A   Mostly Cloudy
3:18 AM 64.4 °F 60.8 °F 88% 30.18 in 10.0 mi ENE 5.8 mph - N/A   Mostly Cloudy
3:48 AM 64.4 °F 60.8 °F 88% 30.17 in 10.0 mi ENE 5.8 mph - N/A   Overcast
3:58 AM 64.4 °F 60.8 °F 88% 30.18 in 10.0 mi ENE 4.6 mph - N/A   Overcast
4:03 AM 62.6 °F 60.8 °F 94% 30.17 in 10.0 mi ENE 5.8 mph - N/A   Mostly Cloudy
4:58 AM 63.1 °F 61.0 °F 93% 30.18 in 10.0 mi ENE 6.9 mph - N/A   Clear
5:58 AM 63.1 °F 61.3 °F 94% 30.20 in 10.0 mi ENE 5.8 mph - N/A   Mostly Cloudy
6:58 AM 63.1 °F 62.1 °F 96% 30.21 in 10.0 mi ENE 5.8 mph - N/A   Overcast
7:58 AM 66.6 °F 63.3 °F 89% 30.22 in 10.0 mi East 5.8 mph - N/A   Clear
8:58 AM 71.2 °F 65.8 °F 83% 30.22 in 10.0 mi SE 9.2 mph - N/A   Partly Cloudy
9:58 AM 72.9 °F 66.2 °F 80% 30.23 in 10.0 mi SE 10.4 mph - N/A   Clear
10:58 AM 75.9 °F 67.6 °F 75% 30.23 in 10.0 mi ESE 13.8 mph - N/A   Clear
11:33 AM 78.8 °F 69.8 °F 74% 30.21 in 10.0 mi SE 10.4 mph - N/A   Mostly Cloudy
11:38 AM 78.8 °F 69.8 °F 74% 30.21 in 10.0 mi SE 9.2 mph - N/A   Scattered Clouds
11:53 AM 78.8 °F 69.8 °F 74% 30.21 in 10.0 mi ESE 12.7 mph - N/A   Mostly Cloudy
11:58 AM 78.6 °F 69.3 °F 73% 30.22 in 10.0 mi SE 9.2 mph - N/A   Mostly Cloudy
12:33 PM 77.0 °F 68.0 °F 74% 30.20 in 10.0 mi SE 9.2 mph - N/A   Mostly Cloudy
12:58 PM 76.1 °F 68.5 °F 77% 30.20 in 10.0 mi SSE 6.9 mph - N/A   Mostly Cloudy
1:18 PM 75.2 °F 68.0 °F 78% 30.18 in 10.0 mi SSE 9.2 mph - N/A   Mostly Cloudy
1:43 PM 75.2 °F 68.0 °F 78% 30.17 in 10.0 mi SSE 9.2 mph - N/A   Scattered Clouds
1:58 PM 75.7 °F 68.4 °F 78% 30.18 in 10.0 mi SE 8.1 mph - N/A   Partly Cloudy
2:17 PM 73.4 °F 68.0 °F 83% 30.18 in 10.0 mi North 9.2 mph - N/A Rain Light Rain
2:22 PM 71.6 °F 68.0 °F 88% 30.18 in 10.0 mi NE 9.2 mph - N/A Rain Light Rain
2:27 PM 71.6 °F 68.0 °F 88% 30.18 in 8.0 mi NNE 6.9 mph - N/A Rain Light Rain
2:32 PM 69.8 °F 68.0 °F 94% 30.18 in 2.0 mi NE 6.9 mph - N/A Rain Light Rain
2:37 PM 69.8 °F 68.0 °F 94% 30.17 in 1.0 mi ENE 4.6 mph - N/A Rain Heavy Rain
2:42 PM 69.8 °F 68.0 °F 94% 30.17 in 1.5 mi East 4.6 mph - N/A Rain Light Rain
2:47 PM 69.8 °F 68.0 °F 94% 30.17 in 7.0 mi ESE 3.5 mph - N/A Rain Light Rain
2:52 PM 69.8 °F 68.0 °F 94% 30.16 in 10.0 mi SE 4.6 mph - N/A   Mostly Cloudy
2:58 PM 70.7 °F 68.9 °F 94% 30.17 in 10.0 mi SE 4.6 mph - 0.24 in   Scattered Clouds
3:58 PM 70.7 °F 68.0 °F 91% 30.16 in 10.0 mi SE 11.5 mph - N/A   Mostly Cloudy
4:58 PM 68.7 °F 67.5 °F 96% 30.16 in 10.0 mi SE 10.4 mph - N/A   Scattered Clouds
5:58 PM 67.6 °F 66.6 °F 96% 30.16 in 10.0 mi ESE 6.9 mph - N/A   Scattered Clouds
6:03 PM 68.0 °F 66.2 °F 94% 30.15 in 10.0 mi ESE 8.1 mph - N/A   Mostly Cloudy
6:13 PM 68.0 °F 66.2 °F 94% 30.15 in 10.0 mi ESE 6.9 mph - N/A   Mostly Cloudy
6:33 PM 68.0 °F 66.2 °F 94% 30.15 in 10.0 mi ESE 6.9 mph - N/A   Overcast
6:58 PM 67.8 °F 66.9 °F 97% 30.17 in 10.0 mi East 5.8 mph - N/A   Overcast
7:38 PM 68.0 °F 68.0 °F 100% 30.18 in 10.0 mi NE 3.5 mph - N/A   Overcast
7:48 PM 68.0 °F 68.0 °F 100% 30.18 in 10.0 mi ENE 4.6 mph - N/A   Overcast
7:58 PM 68.2 °F 67.5 °F 98% 30.19 in 10.0 mi East 4.6 mph - N/A   Overcast
8:06 PM 68.0 °F 68.0 °F 100% 30.18 in 10.0 mi East 2.3 mph - N/A   Light Drizzle
8:11 PM 68.0 °F 68.0 °F 100% 30.18 in 9.0 mi ENE 3.5 mph - N/A   Light Drizzle
8:17 PM 68.0 °F 68.0 °F 100% 30.18 in 9.0 mi East 2.3 mph - N/A   Overcast
8:27 PM 68.0 °F 68.0 °F 100% 30.18 in 10.0 mi East 3.5 mph - N/A   Overcast
8:58 PM 68.2 °F 67.6 °F 98% 30.19 in 9.0 mi Calm Calm - 0.00 in   Overcast
9:23 PM 68.0 °F 68.0 °F 100% 30.19 in 8.0 mi NNE 2.3 mph - N/A   Overcast
9:38 PM 68.0 °F 68.0 °F 100% 30.19 in 7.0 mi North 5.8 mph - N/A   Overcast
9:43 PM 68.0 °F 66.2 °F 94% 30.19 in 8.0 mi North 6.9 mph - N/A   Overcast
9:48 PM 68.0 °F 66.2 °F 94% 30.19 in 10.0 mi North 5.8 mph - N/A   Overcast
9:53 PM 68.0 °F 66.2 °F 94% 30.19 in 10.0 mi NNE 8.1 mph - N/A   Overcast
9:58 PM 67.3 °F 66.0 °F 96% 30.20 in 10.0 mi NNE 5.8 mph - N/A   Overcast
10:23 PM 66.2 °F 64.4 °F 94% 30.20 in 10.0 mi North 8.1 mph - N/A   Overcast
10:58 PM 66.2 °F 63.7 °F 92% 30.20 in 10.0 mi North 6.9 mph - N/A   Overcast
11:23 PM 66.2 °F 62.6 °F 88% 30.19 in 10.0 mi NNE 5.8 mph - N/A   Overcast
11:58 PM 65.1 °F 63.0 °F 93% 30.18 in 10.0 mi NNE 6.9 mph - N/A   Overcast